Regional Weather Roundup
Issued by NWS

Home | Current Version | Previous Version | Text Only | Print | Product List | Glossary Off
Versions: 1 2 3 4 5 6 7 8 9 10 11 12 13 14 15 16 17 18 19 20 21 22 23 24 25 26 27 28 29 30 31 32 33 34 35 36 37 38 39 40 41 42 43 44 45 46 47 48 49 50

000
ASUS43 KIND 310659
RWRIN

WEATHER ROUNDUP FOR INDIANA
NATIONAL WEATHER SERVICE INDIANAPOLIS IN
300 AM EDT TUE MAY 31 2016

NOTE: "FAIR" INDICATES FEW OR NO CLOUDS BELOW 12,000 FEET WITH NO
SIGNIFICANT WEATHER AND/OR OBSTRUCTIONS TO VISIBILITY.

* - STATION DOES NOT REPORT WEATHER SUCH AS PRECIPITATION OR FOG.

+ - STATION NOT QUALITY CONTROLLED BY THE NATIONAL WEATHER SERVICE.
    USE DATA WITH CAUTION...ESPECIALLY DEWPOINT AND RELATIVE
    HUMIDITY OBSERVATIONS.

INZ001>003-010>013-019-020-310800-
NORTHWEST INDIANA

CITY           SKY/WX    TMP DP  RH WIND       PRES   REMARKS
RENSSELAER +   PTCLDY    66  59  77 NE5       29.99S

$$

LMZ046-743>745-310800-
SOUTHERN LAKE MICHIGAN

STATION/POSITION TIME  TEMP    WIND        PRES    WAVE
                       AIR SEA DIR/SP/G            HT
                 (UTC) (F)     (DEG/KT/KT) (MB)    (FT)
BURNS HARBOR     0600   63      70/  6/  7 1015.9F
MICHIGAN CITY    0600   67      50/  7/  8   N/A
5NW MICH CITY    0600   63 61   60/  4/  6   N/A     1

$$

INZ004-005-014>016-021>024-310800-
NORTH CENTRAL INDIANA

CITY           SKY/WX    TMP DP  RH WIND       PRES   REMARKS
GOSHEN         CLEAR     60  55  83 CALM      30.01R
SOUTH BEND     PTCLDY    65  56  72 CALM      30.01R

$$

INZ006>009-017-018-025>027-310800-
NORTHEAST INDIANA

CITY           SKY/WX    TMP DP  RH WIND       PRES   REMARKS
ANGOLA *+        N/A     59  57  94 CALM      30.01S
FORT WAYNE     MOCLDY    64  54  69 CALM      30.00S

$$

INZ028-029-035-036-043>045-051>053-310800-
WEST CENTRAL INDIANA

CITY           SKY/WX    TMP DP  RH WIND       PRES   REMARKS
CRAWFORDSVL +  PTCLDY    62  60  93 CALM      29.98S
GREENCASTLE +  MOCLDY    63  61  94 CALM      29.99S
LAFAYETTE      PTCLDY    66  58  75 N8        29.97F
TERRE HAUTE    CLOUDY    66  61  84 CALM      29.98S

$$

INZ030>032-037>040-046>048-054>057-064-065-310800-
CENTRAL INDIANA

CITY           SKY/WX    TMP DP  RH WIND       PRES   REMARKS
INDIANAPOLIS   CLOUDY    69  59  70 CALM      29.96F
-EAGLE CREEK   MOCLDY    69  59  70 CALM      29.97F
KOKOMO *+      PTCLDY    64  54  68 E6        29.98F
SHELBYVILLE    CLOUDY    66  58  75 CALM      29.97F

$$

INZ033-034-041-042-049-050-058-059-310800-
EAST CENTRAL INDIANA

CITY           SKY/WX    TMP DP  RH WIND       PRES   REMARKS
MUNCIE         PTCLDY    66  57  72 CALM      29.99S

$$

INZ060-061-067>069-081>083-085>088-310800-
SOUTHWEST INDIANA

CITY           SKY/WX    TMP DP  RH WIND       PRES   REMARKS
EVANSVILLE     CLOUDY    66  62  87 CALM      29.97S
HUNTINGBURG *+ PTCLDY    64  59  82 CALM      29.97S

$$

INZ062-063-066-070>080-084-089>092-310800-
SOUTH CENTRAL AND SOUTHEAST INDIANA

CITY           SKY/WX    TMP DP  RH WIND       PRES   REMARKS
BLOOMINGTON    PTCLDY    64  60  87 CALM      29.98S
MADISON *+     CLEAR     63  59  88 CALM      30.00F
SEYMOUR +      CLEAR     66  63  88 CALM      29.97F

$$





USA.gov is the U.S. government's official web portal to all federal, state and local government web resources and services.